Showing default

HAWK-10A, 60540

Orbit data source: Space-Track

HAWK-10A, 60540 is a payload satellite owned by HawkEye 360 (US) in SSO that was launched on Fri, 16 Aug 2024 UTC via an FALCON 9 launch vehicle from the Air Force Western Test Range (AFWTR). Payload-class satellites include a variety of spacecraft equipped with specific instruments for various scientific and technological missions. These include communications satellites like Starlink; space stations such as the ISS; scientific satellites like the Hubble; Earth observation satellites from companies like Planet Labs, Umbra, and HawkEye 360; GPS; miniature CubeSats for education and research; and military/defense satellites.

Loading next visibility...
Identifier
60540, 2024-149CA
Orbit
SSO
Country
Flag of USUS
Related business
Manufacturer
UTIAS-SFL
Mission
Operational Commercial Sigint
Bus & Motor
HAWK2G, Unknown motor
Mass
31 kg wet, 30 kg dry
Launch date (UTC)
2024-08-16 (1 year ago)
Launch vehicle
FALCON 9
Launch site
Air Force Western Test Range (AFWTR)
Object type
Payload
Rocket body
Debris
Shape & HBR
Box + 2 Pan, 1.0 m
Radar Cross Section
0.240 m², Medium (>0.1 m² and < 1m²)

Expand to show TLE details & history
Last TLE update: 23 hours ago

TLE from 23 hours ago
0 HAWK-10A
1 60540U 24149CA  26034.15490184  .00002518  00000-0  22946-3 0  9994
2 60540  97.7016 112.3512 0004499 142.8482 217.3051 14.96018600 79940
Epoch: 2026-02-03T03:43Z
TLE epoch observation values (Epoch: 2026-02-03T03:43:03.518Z)
Latitude
-0.00008°
Longitude
-76.75335°
Altitude
584.753 km
Speed
7.567 km/s
True Right ascension
07h 29m 24s
True Declination
0° 00' 00"
Sunlit
Object was in full shadow at epoch
Visualization orbit readout
Latitude
Unknown
Longitude
Unknown
Altitude
Unknown
Speed
Unknown
Apparent Right ascension
Unknown
Apparent Declination
Unknown
Sunlit
N/A
Visualization observer readout
Local Sidereal Time
05:01:24
Azimuth
Unknown
Elevation
Unknown
Doppler factor
Unknown
Orbital elements
Apogee altitude
579.352 km
Perigee altitude
573.095 km
Semi-major axis
6,954.361 km
Eccentricity
0.00045
Inclination
97.7016°
RAAN
112.3512°
Arg. of periapsis
142.8482°
True anomaly
217.27387°
Mean anomaly
217.3051°
Eccentric anomaly
217.28948°
Mean motion
3.74246 °/min
Orbital period
96.19 mins
BSTAR
0.00022946
Loading maneuver chart data...
Computing Atmospheric mass density...
Loading historical data...
Loading historical data...
Loading historical data...
Loading historical data...
Loading historical data...
Loading historical data...
Loading historical data...

Documentation

Showing up to 5 results
|